Regional Weather Roundup
Issued by NWS Sterling, VA

Home | Current Version | Previous Version | Text Only | Print | Product List | Glossary Off
Versions: 1 2 3 4 5 6 7 8 9 10 11 12 13 14 15 16 17 18 19 20 21 22 23 24 25 26 27 28

000
ASUS41 KLWX 281410
RWRLWX

REGIONAL WEATHER ROUNDUP
NATIONAL WEATHER SERVICE BALTIMORE MD/WASHINGTON DC
1000 AM EDT SUN MAY 28 2017

Note: "FAIR" indicates few or no clouds below 12,000 feet
with no significant weather and/or obstructions to visibility.
 TC=TEMPERATURE CELSIUS

 * =Non NWS site. Station does not report precipitation (e.g. rain,
    snow, etc.), thunder, or fog.

DCZ001-MDZ009-015-VAZ040>042-051-053>054-281500-
WASHINGTON METRO

CITY           SKY/WX    TMP DP  RH WIND       PRES   REMARKS
WASHINGTON NAT PTSUNNY   71  60  68 E7        29.89S
DULLES         CLOUDY    69  61  75 NE3       29.88F
ANDREWS AFB    SUNNY     71  59  66 E8        29.87F
FT BELVOIR     MOSUNNY   71  60  69 NE3       29.87F
QUANTICO       PTSUNNY   69  64  84 VRB3      29.88F
COLLEGE PARK*  CLOUDY    68  58  70 SE3       29.89F
LEESBURG*      CLOUDY    64  63  94 E7        29.90S
MANASSAS*      PTSUNNY   71  62  73 SE7       29.88F
GAITHERSBURG*  CLOUDY    66  60  81 VRB6      29.90S

$$

MDZ006>007-011-014-281500-
BALTIMORE METRO

CITY           SKY/WX    TMP DP  RH WIND       PRES   REMARKS
BWI AIRPORT    CLOUDY    68  59  73 E8        29.89R
MD SCIENCE CTR   N/A     69  58  67 MISG      29.90F
MARTIN STATE   MOSUNNY   70  63  78 E8        29.92R
ANNAPOLIS      PTSUNNY   70  62  76 SE6       29.89S
FORT MEADE*    CLOUDY    68  59  73 E6        29.91F

$$

MDZ012-015-019>023-281500-
MARYLAND EASTERN SHORE

CITY           SKY/WX    TMP DP  RH WIND       PRES   REMARKS
OCEAN CITY     SUNNY     67  61  81 E8        29.92R
SALISBURY      SUNNY     73  58  59 E14       29.90R
BAY BRIDGE AP* MOSUNNY   72  59  64 SE6       29.90S
CAMBRIDGE*     MOSUNNY   72  61  68 E10       29.89F
EASTON*        PTSUNNY   73  59  60 E8        29.92F

$$

MDZ017>025-281500-
SOUTHERN MARYLAND

CITY           SKY/WX    TMP DP  RH WIND       PRES   REMARKS
PATUXENT RIVER CLOUDY    68  63  84 SE9       29.87F
ST INIGOES     MOSUNNY   70  62  76 E9        29.87S
LEONARDTOWN*   CLOUDY    68  59  73 E9        29.89F

$$

MDZ003>005-281500-
NORTH CENTRAL MARYLAND

CITY           SKY/WX    TMP DP  RH WIND       PRES   REMARKS
FREDERICK*     NOT AVBL
HAGERSTOWN APT CLOUDY    65  63  93 CALM      29.88S FOG
WESTMINSTER*   MOSUNNY   70  61  73 SE5       29.90S

$$

MDZ501>502-281500-
WESTERN MARYLAND

CITY           SKY/WX    TMP DP  RH WIND       PRES   REMARKS
OAKLAND*         N/A     63  61  94 S6        29.90S
CUMBERLAND*    CLOUDY    63  63 100 CALM      29.91S

$$

VAZ025>031-281500-
SHENANDOAH VALLEY

CITY           SKY/WX    TMP DP  RH WIND       PRES   REMARKS
WINCHESTER*    CLOUDY    63  61  94 E3        29.87F
FRONT ROYAL*   CLOUDY    64  63  94 N5        29.86F
LURAY*         CLOUDY    66  63  88 NE3       29.86F
NEW MARKET*    CLOUDY    66  63  88 NE5       29.86S
STAUNTON*      CLOUDY    66  63  89 CALM      29.89F
WAYNESBORO*    CLOUDY    65  63  93 SE8       29.88S

$$

WVZ021-048>050-054>055-281500-
EASTERN WEST VIRGINIA PANHANDLE

CITY           SKY/WX    TMP DP  RH WIND       PRES   REMARKS
MARTINSBURG    CLOUDY    63  60  90 E3        29.87F FOG
PETERSBURG*    CLOUDY    67  65  93 W3        29.87S

$$

VAZ036>039-050-281500-
CENTRAL FOOTHILLS

CITY           SKY/WX    TMP DP  RH WIND       PRES   REMARKS
CHARLOTTESVILL CLOUDY    67  64  90 N6        29.87S FOG
CULPEPER*      CLOUDY    67  63  85 CALM      29.89S
ORANGE*        CLOUDY    66  63  88 N5        29.87F
GORDONSVILLE*  CLOUDY    66  63  89 NE6       29.86F
WARRENTON*     PTSUNNY   70  60  70 CALM      29.87S

$$

VAZ055>057-281500-
NORTH AND CENTRAL PIEDMONT

CITY           SKY/WX    TMP DP  RH WIND       PRES   REMARKS
FREDERICKSBRG* PTSUNNY   70  65  85 E7        29.86S
STAFFORD*      PTSUNNY   69  65  85 E3        29.91S

$$

NCZ024-NYZ072-PAZ021-071-VAZ022-071-281500-
OTHER REGIONAL OBSERVATIONS

CITY           SKY/WX    TMP DP  RH WIND       PRES   REMARKS
NEW YORK CITY  MOSUNNY   65  59  81 CALM      29.96F
PHILADELPHIA   MOSUNNY   73  60  63 E6        29.91S
PITTSBURGH     CLOUDY    69  64  84 SE5       29.81F
ROANOKE        CLOUDY    72  63  73 W5        29.90R
RICHMOND       LGT RAIN  71  67  87 E6        29.84S
RALEIGH        PTSUNNY   78  70  76 SW10      29.87R

$$

ANZ530>537-281500-
MARINE OBSERVATIONS

STATION/POSITION TIME  TEMP    WIND        PRES
                       AIR SEA DIR/SP/G
                 (UTC) (F)     (DEG/KT/KT) (MB)
THOMAS PT LIGHT  1400   65 65   50/  4/  5   N/A
BALT KEY BRIDGE  1348   65     130/  6/  8 1012.6R
COVE POINT       1348   68     160/  7/  8 1012.3F
LEWISETTA        1348   67 70  120/ 12/ 13 1011.5S
SOLOMONS ISLAND  1348   67 68  110/  8/  9   N/A
PINEY POINT      1342          130/ 10/ 12   N/A

$$





USA.gov is the U.S. government's official web portal to all federal, state and local government web resources and services.